GW3856 Weather Reports


time (UTC)temp
C
wind
direction
speed
KPH
gust
KPH
rain 1hr
cm
rain 24hr
cm
rain mn
cm
humidity
%
barometer
mb
20260507152038 9 257 14.5 27.4 0.00 1.40 0.03 54 1007.0
20260507151550 10 287 12.9 25.7 0.00 1.40 0.03 53 1006.9
20260507151041 9 251 6.4 17.7 0.00 1.40 0.03 60 1006.9
20260507150543 8 235 6.4 25.7 0.00 1.40 0.03 58 1006.9
20260507150049 8 289 8.0 25.7 0.00 1.40 0.03 62 1007.0
20260507145540 8 294 6.4 24.1 0.00 1.47 0.03 63 1007.0
20260507145039 8 269 8.0 19.3 0.00 1.47 0.03 65 1006.8
20260507144553 8 293 4.8 14.5 0.00 1.47 0.03 67 1006.8
20260507144040 8 291 3.2 19.3 0.00 1.47 0.03 66 1006.9
20260507143539 8 335 8.0 19.3 0.00 1.47 0.03 62 1006.8
20260507143049 8 247 8.0 20.9 0.00 1.47 0.03 64 1006.9
20260507142539 8 273 8.0 20.9 0.00 1.47 0.03 65 1007.0
20260507142037 8 297 14.5 20.9 0.00 1.47 0.03 63 1006.9
20260507141553 8 261 9.7 19.3 0.00 1.47 0.03 68 1007.0
20260507141040 8 248 8.0 19.3 0.00 1.47 0.03 69 1007.0
20260507140539 8 294 9.7 22.5 0.00 1.47 0.03 71 1007.0
20260507140108 7 301 8.0 22.5 0.00 1.47 0.03 76 1006.9
20260507135540 7 248 12.9 24.1 0.00 1.68 0.03 75 1006.9
20260507135040 7 263 12.9 24.1 0.00 1.68 0.03 79 1007.0
20260507134555 7 265 11.3 24.1 0.00 1.68 0.03 82 1007.0
20260507134037 7 303 9.7 22.5 0.00 1.68 0.03 87 1007.0
20260507133542 7 249 8.0 16.1 0.00 1.68 0.03 90 1007.1
20260507133049 7 299 6.4 20.9 0.00 1.68 0.03 92 1007.0
20260507132539 7 306 9.7 20.9 0.00 1.68 0.03 92 1007.0
20260507132043 7 266 9.7 16.1 0.00 1.68 0.03 92 1007.0
20260507131601 7 257 6.4 24.1 0.00 1.68 0.03 92 1006.9
20260507131042 6 252 12.9 24.1 0.00 1.68 0.03 92 1007.0
20260507130540 6 313 1.6 6.4 0.00 1.68 0.03 92 1007.1
20260507130058 6 0 0.0 6.4 0.00 1.68 0.03 92 1007.1
20260507125539 6 332 1.6 8.0 0.00 1.78 0.03 92 1007.1
20260507125039 6 288 1.6 8.0 0.00 1.78 0.03 92 1007.0
20260507124602 6 0 1.6 8.0 0.00 1.78 0.03 92 1006.8
20260507124040 6 225 3.2 6.4 0.00 1.78 0.03 92 1006.8
20260507123538 6 290 0.0 4.8 0.00 1.78 0.03 92 1006.8
20260507123056 5 336 1.6 4.8 0.00 1.78 0.03 92 1006.8
20260507122539 5 336 0.0 6.4 0.00 1.78 0.03 92 1006.8
20260507122037 5 336 1.6 9.7 0.00 1.78 0.03 92 1006.9
20260507121550 5 304 3.2 9.7 0.00 1.78 0.03 92 1006.9
20260507121040 5 321 3.2 9.7 0.00 1.78 0.03 92 1006.8
20260507120537 6 161 0.0 3.2 0.00 1.78 0.03 92 1006.7
20260507120049 6 0 0.0 1.6 0.00 1.78 0.03 92 1006.7
20260507115539 6 0 0.0 1.6 0.00 1.80 0.03 92 1006.7
20260507115039 6 0 0.0 3.2 0.00 1.80 0.03 92 1006.7
20260507114549 6 0 0.0 3.2 0.00 1.80 0.03 92 1006.6
20260507114042 6 0 1.6 3.2 0.00 1.80 0.03 92 1006.6
20260507113540 6 0 0.0 8.0 0.00 1.80 0.03 92 1006.4
20260507113051 5 157 0.0 9.7 0.00 1.80 0.03 92 1006.4
20260507112538 5 157 1.6 9.7 0.03 1.80 0.03 92 1006.5
20260507112040 5 156 0.0 8.0 0.03 1.80 0.03 92 1006.5
20260507111555 5 0 1.6 8.0 0.03 1.80 0.03 92 1006.5
20260507111039 5 158 0.0 8.0 0.03 1.80 0.03 92 1006.5
20260507110539 5 0 1.6 8.0 0.03 1.80 0.03 92 1006.6
20260507110048 5 132 1.6 4.8 0.03 1.80 0.03 92 1006.5
20260507105539 5 0 0.0 4.8 0.03 1.83 0.03 92 1006.5
20260507105039 5 0 0.0 4.8 0.03 1.83 0.03 92 1006.6
20260507104548 5 0 0.0 4.8 0.03 1.83 0.03 92 1006.6
20260507104039 5 0 0.0 8.0 0.03 1.83 0.03 92 1006.6
20260507103540 5 132 1.6 8.0 0.03 1.83 0.03 92 1006.6
20260507103047 5 127 3.2 8.0 0.03 1.83 0.03 92 1006.5
20260507102540 5 126 0.0 4.8 0.00 1.80 0.00 92 1006.5
20260507102040 5 126 1.6 4.8 0.00 1.80 0.00 92 1006.6
20260507101549 5 126 1.6 4.8 0.00 1.80 0.00 92 1006.4
20260507101041 5 126 1.6 4.8 0.00 1.80 0.00 92 1006.4
20260507100538 5 126 0.0 4.8 0.00 1.80 0.00 92 1006.4
20260507100045 5 126 0.0 3.2 0.00 1.80 0.00 92 1006.2
20260507095540 5 0 1.6 6.4 0.00 1.80 0.00 92 1006.3
20260507095039 5 126 0.0 6.4 0.00 1.80 0.00 92 1006.4
20260507094552 5 126 0.0 3.2 0.00 1.80 0.00 92 1006.2
20260507094039 5 126 0.0 3.2 0.00 1.80 0.00 92 1006.2
20260507093538 5 0 0.0 3.2 0.00 1.80 0.00 92 1006.5
20260507093049 5 0 1.6 4.8 0.00 1.80 0.00 92 1006.6
20260507092539 5 0 0.0 4.8 0.00 1.80 0.00 92 1006.6
20260507092044 5 126 0.0 4.8 0.00 1.80 0.00 92 1006.5
20260507091544 5 126 1.6 4.8 0.00 1.80 0.00 92 1006.5
20260507091037 5 125 1.6 6.4 0.00 1.80 0.00 92 1006.5
20260507090538 5 125 0.0 6.4 0.00 1.80 0.00 92 1006.5
20260507090044 5 124 1.6 4.8 0.00 1.80 0.00 92 1006.5
20260507085541 5 124 3.2 6.4 0.00 1.80 0.00 92 1006.4
20260507085040 5 0 1.6 6.4 0.00 1.80 0.00 92 1006.3
20260507084553 5 178 0.0 4.8 0.00 1.80 0.00 92 1006.4
20260507084039 5 184 1.6 4.8 0.00 1.80 0.00 92 1006.5
20260507083540 5 184 0.0 4.8 0.00 1.80 0.00 92 1006.7
20260507083053 5 184 1.6 4.8 0.00 1.80 0.00 92 1006.7
20260507082544 5 180 0.0 4.8 0.00 1.80 0.00 92 1006.8
20260507082044 5 183 1.6 3.2 0.00 1.80 0.00 92 1006.8
20260507081549 5 0 0.0 3.2 0.00 1.80 0.00 92 1006.8
20260507081041 5 0 0.0 0.0 0.00 1.80 0.00 92 1006.7
20260507080539 5 0 0.0 0.0 0.00 1.80 0.00 92 1006.6
20260507080121 5 0 0.0 0.0 0.00 1.80 0.00 92 1006.5
20260507075540 5 0 0.0 1.6 0.00 1.83 0.00 92 1006.7
20260507075040 5 0 0.0 3.2 0.00 1.83 0.00 92 1006.6
20260507074546 5 0 0.0 3.2 0.00 1.83 0.00 92 1006.6
20260507074039 5 184 1.6 3.2 0.00 1.83 0.00 92 1006.5
20260507073540 5 0 0.0 4.8 0.00 1.83 0.00 92 1006.5
20260507073059 5 0 0.0 6.4 0.00 1.83 0.00 92 1006.5
20260507072540 5 184 1.6 6.4 0.00 1.83 0.00 92 1006.5
20260507072042 5 165 1.6 6.4 0.00 1.83 0.00 92 1006.5
20260507071601 5 191 1.6 6.4 0.00 1.83 0.00 92 1006.5
20260507071038 5 0 0.0 4.8 0.00 1.83 0.00 92 1006.2
20260507070537 5 153 0.0 4.8 0.00 1.83 0.00 92 1006.2
20260507070048 5 0 0.0 8.0 0.00 1.83 0.00 92 1006.1
20260507065539 5 0 0.0 8.0 0.00 1.88 0.00 92 1006.4
20260507065039 5 153 3.2 8.0 0.00 1.88 0.00 92 1006.4
20260507064552 5 164 3.2 6.4 0.00 1.88 0.00 92 1006.3
20260507064040 5 211 1.6 4.8 0.00 1.88 0.00 92 1006.5
20260507063539 5 0 0.0 0.0 0.00 1.88 0.00 92 1006.2
20260507063051 5 0 0.0 4.8 0.00 1.88 0.00 92 1006.1
20260507062540 5 0 0.0 4.8 0.00 1.88 0.00 92 1006.4
20260507062040 5 0 1.6 4.8 0.00 1.88 0.00 92 1006.5
20260507061544 5 0 0.0 4.8 0.00 1.88 0.00 92 1006.4
20260507061040 5 211 0.0 6.4 0.00 1.88 0.00 92 1006.4
20260507060541 5 0 1.6 6.4 0.00 1.88 0.00 92 1006.7
20260507060042 5 211 1.6 6.4 0.00 1.88 0.00 92 1006.6
20260507055540 5 240 1.6 4.8 0.00 1.96 0.00 92 1006.3
20260507055037 5 240 0.0 3.2 0.00 1.96 0.00 92 1006.6
20260507054549 5 0 0.0 3.2 0.00 1.96 0.00 92 1006.8
20260507054040 5 0 0.0 4.8 0.00 1.96 0.00 92 1006.7
20260507053540 5 0 0.0 4.8 0.00 1.96 0.00 92 1006.8
20260507053049 5 0 0.0 3.2 0.00 1.96 0.00 92 1006.9
20260507052539 5 0 0.0 3.2 0.00 1.96 0.00 92 1006.7
20260507052039 5 0 0.0 6.4 0.00 1.96 0.00 92 1006.6
20260507051549 5 320 1.6 12.9 0.00 1.96 0.00 92 1006.7
20260507051041 5 305 1.6 12.9 0.00 1.96 0.00 92 1006.9
20260507050538 5 305 6.4 12.9 0.00 1.96 0.00 92 1007.1
20260507050049 5 319 1.6 6.4 0.00 1.96 0.00 92 1006.9
20260507045540 5 299 1.6 9.7 0.00 2.18 0.00 92 1006.8
20260507045040 5 293 1.6 9.7 0.00 2.18 0.00 92 1006.8
20260507044549 5 266 4.8 9.7 0.00 2.18 0.00 92 1007.2
20260507044042 5 343 1.6 8.0 0.00 2.18 0.00 92 1007.1
20260507043539 5 0 0.0 8.0 0.00 2.18 0.00 92 1006.9
20260507043058 5 343 1.6 8.0 0.00 2.18 0.00 92 1006.9
20260507042539 5 9 1.6 6.4 0.00 2.18 0.00 92 1006.9
20260507042039 5 0 0.0 8.0 0.00 2.18 0.00 92 1007.1
20260507041551 5 309 1.6 8.0 0.00 2.18 0.00 92 1007.2
20260507041039 5 308 3.2 11.3 0.00 2.18 0.00 92 1007.0
20260507040541 5 331 4.8 11.3 0.00 2.18 0.00 92 1006.8
20260507040059 5 351 1.6 6.4 0.00 2.18 0.00 92 1006.8
20260507035539 6 351 1.6 8.0 0.00 2.39 2.18 92 1006.9
20260507035039 6 350 1.6 8.0 0.00 2.39 2.18 92 1006.8
20260507034558 6 0 1.6 12.9 0.00 2.39 2.18 92 1006.8
20260507034040 6 318 1.6 12.9 0.00 2.39 2.18 92 1007.1
20260507033538 6 310 6.4 12.9 0.00 2.39 2.18 92 1007.3
20260507033044 6 331 6.4 12.9 0.00 2.39 2.18 92 1007.3
20260507032542 6 323 3.2 16.1 0.00 2.39 2.18 92 1007.2
20260507032039 6 307 6.4 16.1 0.00 2.39 2.18 92 1007.3
20260507031548 6 294 8.0 16.1 0.00 2.39 2.18 92 1007.2
20260507031039 6 17 1.6 6.4 0.00 2.39 2.18 92 1007.0
20260507030538 6 306 3.2 6.4 0.00 2.39 2.18 92 1007.1
20260507030048 6 304 1.6 8.0 0.00 2.39 2.18 92 1007.0
20260507025539 6 304 1.6 12.9 0.03 2.39 2.18 92 1007.1
20260507025037 6 0 1.6 12.9 0.03 2.39 2.18 92 1007.2
20260507024545 6 325 1.6 9.7 0.03 2.39 2.18 92 1007.4
20260507024040 6 283 4.8 9.7 0.03 2.39 2.18 92 1007.2
20260507023538 6 300 1.6 6.4 0.05 2.39 2.18 92 1007.4
20260507023048 6 0 1.6 11.3 0.08 2.39 2.18 92 1007.3
20260507022540 6 300 1.6 11.3 0.08 2.39 2.18 92 1007.2
20260507022040 6 300 4.8 11.3 0.10 2.39 2.18 91 1007.4
20260507021549 6 301 3.2 11.3 0.10 2.39 2.18 92 1007.3
20260507021038 6 275 4.8 11.3 0.10 2.39 2.18 91 1007.6
20260507020540 6 305 6.4 11.3 0.10 2.39 2.18 91 1007.5
20260507015539 6 306 4.8 9.7 0.08 2.36 2.16 91 1007.5
20260507015037 6 360 4.8 11.3 0.08 2.36 2.16 91 1007.5
20260507014600 6 321 4.8 17.7 0.08 2.36 2.16 92 1007.6
20260507014039 6 298 6.4 17.7 0.08 2.34 2.13 92 1007.6
20260507013542 6 298 4.8 16.1 0.08 2.34 2.13 92 1007.7
20260507013044 6 310 6.4 16.1 0.08 2.31 2.11 92 1007.7
20260507012542 6 312 4.8 12.9 0.08 2.31 2.11 92 1007.7
20260507012040 6 326 1.6 14.5 0.05 2.29 2.08 91 1007.7
20260507011559 6 313 6.4 14.5 0.05 2.29 2.08 91 1007.6
20260507011039 6 318 6.4 14.5 0.05 2.29 2.08 91 1007.5
20260507010539 6 311 6.4 12.9 0.05 2.29 2.08 91 1007.4
20260507010043 6 305 4.8 12.9 0.08 2.29 2.08 91 1007.3
20260507005539 6 343 4.8 12.9 0.08 2.29 2.08 91 1007.3
20260507005041 6 319 4.8 12.9 0.08 2.29 2.08 91 1007.1
20260507004550 6 307 6.4 12.9 0.08 2.29 2.08 91 1007.1
20260507004039 6 304 4.8 12.9 0.05 2.26 2.06 91 1007.0
20260507003544 6 325 3.2 8.0 0.05 2.26 2.06 91 1006.9
20260507003049 6 9 3.2 9.7 0.05 2.24 2.03 92 1006.8
20260507002539 6 292 1.6 11.3 0.05 2.24 2.03 92 1007.0
20260507002040 6 279 4.8 11.3 0.05 2.24 2.03 92 1006.9
20260507001606 6 302 1.6 9.7 0.05 2.24 2.03 92 1006.7
20260507001039 6 280 1.6 9.7 0.05 2.24 2.03 92 1006.4
20260507000544 6 279 1.6 9.7 0.05 2.24 2.03 92 1006.5
20260507000045 6 292 0.0 6.4 0.05 2.21 2.01 92 1006.0
20260506235540 6 0 1.6 6.4 0.05 2.21 2.01 92 1005.7
20260506235039 6 0 3.2 6.4 0.05 2.21 2.01 91 1006.1
20260506234548 6 325 0.0 8.0 0.05 2.21 2.01 91 1006.0
20260506234039 6 350 3.2 8.0 0.05 2.21 2.01 91 1005.7
20260506233540 6 308 3.2 6.4 0.05 2.21 2.01 91 1005.9
20260506233049 6 0 3.2 6.4 0.03 2.18 1.98 91 1006.1
20260506232539 6 309 1.6 8.0 0.03 2.18 1.98 91 1006.1
20260506232040 7 309 1.6 8.0 0.03 2.18 1.98 91 1005.9
20260506231544 7 309 3.2 8.0 0.05 2.18 1.98 91 1005.8
20260506231038 7 312 1.6 8.0 0.05 2.18 1.98 91 1005.9
20260506230541 7 346 0.0 4.8 0.05 2.18 1.98 91 1006.0
20260506230052 7 346 1.6 4.8 0.03 2.16 1.96 91 1005.6
20260506225540 7 346 1.6 4.8 0.03 2.16 1.96 91 1005.7
20260506225040 7 0 0.0 9.7 0.03 2.16 1.96 91 1005.8
20260506224548 7 0 0.0 11.3 0.03 2.16 1.96 91 1005.8
20260506224039 7 5 4.8 11.3 0.03 2.16 1.96 91 1005.9
20260506223538 7 13 3.2 8.0 0.03 2.16 1.96 91 1005.8
20260506223049 7 295 3.2 9.7 0.03 2.16 1.96 91 1005.7
20260506222539 7 288 3.2 9.7 0.03 2.16 1.96 91 1005.7
20260506222037 7 322 1.6 8.0 0.05 2.16 1.96 91 1005.7
20260506221551 7 327 1.6 8.0 0.03 2.13 1.93 91 1005.5
20260506221038 7 317 3.2 8.0 0.03 2.13 1.93 91 1005.6
20260506220540 7 314 3.2 8.0 0.03 2.13 1.93 91 1005.6
20260506220059 7 319 0.0 6.4 0.05 2.13 1.93 91 1005.7
20260506215541 7 319 3.2 6.4 0.05 2.13 1.93 91 1005.6
20260506215041 7 339 0.0 6.4 0.05 2.13 1.93 91 1005.6
20260506214546 7 0 0.0 6.4 0.08 2.13 1.93 91 1005.6
20260506214040 7 339 3.2 8.0 0.08 2.13 1.93 91 1005.5
20260506213539 7 0 0.0 8.0 0.08 2.13 1.93 91 1005.4
20260506213044 7 340 3.2 8.0 0.10 2.13 1.93 91 1005.3
20260506212540 7 348 1.6 8.0 0.10 2.13 1.93 91 1005.5
20260506212041 7 0 1.6 8.0 0.08 2.11 1.91 91 1005.4
20260506211547 7 348 4.8 8.0 0.08 2.11 1.91 91 1005.5
20260506211039 7 321 4.8 8.0 0.08 2.11 1.91 91 1005.5
20260506210542 7 315 1.6 6.4 0.10 2.11 1.91 91 1005.3
20260506210100 7 315 0.0 4.8 0.10 2.08 1.88 91 1005.4
20260506205539 7 0 1.6 4.8 0.10 2.13 1.88 91 1005.3
20260506205041 7 314 1.6 4.8 0.13 2.13 1.88 91 1005.3
20260506204550 7 314 0.0 4.8 0.10 2.11 1.85 91 1005.3
20260506204039 7 0 0.0 6.4 0.10 2.11 1.85 91 1005.3
20260506203540 7 314 0.0 6.4 0.10 2.11 1.85 91 1005.3
20260506203121 7 314 1.6 6.4 0.08 2.08 1.83 91 1005.3
20260506202540 7 315 1.6 8.0 0.10 2.08 1.83 91 1005.0
20260506202040 7 349 3.2 8.0 0.10 2.08 1.83 91 1005.2
20260506201541 7 334 1.6 11.3 0.13 2.08 1.83 91 1005.3
20260506201039 7 333 3.2 11.3 0.13 2.08 1.83 91 1005.3
20260506200539 7 304 3.2 8.0 0.10 2.06 1.80 91 1005.3
20260506200051 7 330 1.6 6.4 0.08 2.03 1.78 91 1005.2
20260506195538 7 346 1.6 6.4 0.08 2.16 1.78 91 1005.0
20260506195039 7 355 1.6 6.4 0.05 2.13 1.75 91 1005.1
20260506194549 7 352 0.0 4.8 0.05 2.13 1.75 91 1005.2
20260506194040 7 326 1.6 4.8 0.05 2.13 1.75 91 1005.2
20260506193540 7 360 0.0 4.8 0.05 2.13 1.75 91 1005.4
20260506193045 7 360 1.6 6.4 0.03 2.11 1.73 91 1005.3
20260506192540 7 0 1.6 9.7 0.03 2.11 1.73 91 1005.4
20260506192040 7 345 4.8 9.7 0.03 2.11 1.73 91 1005.3
20260506191550 7 25 4.8 9.7 0.00 2.08 1.70 91 1005.3
20260506191040 7 24 1.6 12.9 0.03 2.08 1.70 91 1005.4
20260506190540 7 27 4.8 12.9 0.03 2.08 1.70 91 1005.3
20260506190053 7 5 3.2 11.3 0.05 2.08 1.70 91 1005.2
20260506185540 7 34 3.2 9.7 0.08 2.08 1.70 91 1005.2
20260506185039 7 5 4.8 14.5 0.13 2.08 1.70 91 1005.3
20260506184556 7 23 4.8 14.5 0.15 2.08 1.70 91 1005.2
20260506184039 7 5 6.4 14.5 0.20 2.08 1.70 91 1005.2
20260506183538 7 84 6.4 16.1 0.25 2.08 1.70 91 1005.2
20260506183101 7 5 8.0 16.1 0.30 2.08 1.70 91 1005.2
20260506182541 7 36 6.4 14.5 0.30 2.08 1.70 91 1005.3
20260506182042 7 30 6.4 19.3 0.33 2.08 1.70 91 1005.4
20260506181548 7 20 6.4 19.3 0.36 2.08 1.70 91 1005.5
20260506181040 7 315 8.0 19.3 0.33 2.06 1.68 91 1005.6
20260506180540 7 22 6.4 14.5 0.36 2.06 1.68 91 1005.8
20260506180054 7 343 3.2 8.0 0.38 2.03 1.65 91 1006.3
20260506175540 7 344 1.6 9.7 0.36 2.01 1.63 91 1006.5
20260506175043 7 5 4.8 12.9 0.38 1.96 1.57 91 1006.1
20260506174604 7 323 3.2 12.9 0.38 1.91 1.52 91 1005.9
20260506174040 7 33 0.0 8.0 0.36 1.85 1.47 91 1005.9
20260506173539 7 355 1.6 8.0 0.33 1.83 1.45 91 1006.1
20260506173056 7 328 0.0 6.4 0.30 1.78 1.40 91 1006.0
20260506172539 7 328 1.6 6.4 0.30 1.75 1.37 91 1005.8
20260506172040 7 328 3.2 6.4 0.33 1.75 1.37 91 1006.0
20260506171547 7 329 1.6 6.4 0.33 1.73 1.32 91 1006.1
20260506171040 7 329 1.6 6.4 0.36 1.73 1.32 91 1006.1
20260506170539 7 329 3.2 8.0 0.33 1.70 1.32 91 1005.9
20260506170100 7 329 3.2 12.9 0.30 1.65 1.27 91 1005.9
20260506165540 7 331 3.2 14.5 0.30 1.65 1.27 91 1005.7
20260506165040 7 329 6.4 14.5 0.25 1.57 1.19 91 1005.9
20260506164553 7 309 8.0 14.5 0.23 1.52 1.14 91 1006.1
20260506164038 7 10 4.8 12.9 0.20 1.47 1.12 91 1005.8
20260506163538 7 327 4.8 19.3 0.20 1.47 1.09 91 1005.8
20260506163104 7 293 6.4 19.3 0.20 1.47 1.09 91 1005.9
20260506162539 7 301 8.0 16.1 0.20 1.45 1.07 91 1006.1
20260506162040 7 305 8.0 16.1 0.18 1.42 1.04 91 1006.1
20260506161549 8 297 4.8 12.9 0.18 1.40 1.02 91 1006.2
20260506161044 8 317 4.8 12.9 0.15 1.37 0.99 91 1006.0
20260506160539 8 314 3.2 12.9 0.15 1.37 0.99 91 1005.9
20260506160051 8 309 4.8 12.9 0.15 1.32 0.97 91 1005.9
20260506155540 8 319 3.2 12.9 0.13 1.32 0.94 91 1006.0
20260506155040 8 336 1.6 12.9 0.15 1.32 0.94 91 1006.1
20260506154553 8 302 4.8 12.9 0.13 1.30 0.91 91 1006.2
20260506154043 8 336 3.2 8.0 0.13 1.30 0.91 91 1006.1
20260506153541 8 306 3.2 8.0 0.13 1.27 0.89 91 1006.1
20260506153043 8 306 3.2 8.0 0.13 1.27 0.89 91 1006.1
20260506152538 8 298 3.2 8.0 0.10 1.24 0.86 91 1006.2